Detroit Metro, MI

1:17 AM EDT on September 20, 2017 (GMT -0400)
Detroit Metro Wayne County

Weather History for KDTW - October, 2012

Change the Weather History Date:

Sunday, October 7, 2012

  Actual Average Record
Temperature  
Mean Temperature 45 °F 56 °F  
Max Temperature 50 °F 65 °F 92 °F (1963)
Min Temperature 40 °F 46 °F 29 °F (1935)
Degree Days  
Heating Degree Days 20 10  
Month to date heating degree days 62 63  
Since 1 July heating degree days 175 177  
Cooling Degree Days 0 1  
Month to date cooling degree days 2 7  
Year to date cooling degree days 1150 802  
Moisture  
Dew Point 36 °F    
Average Humidity 69    
Maximum Humidity 83    
Minimum Humidity 54    
Precipitation  
Precipitation T in 0.08 in 1.50 in (1951)
Month to date precipitation 0.34 0.61  
Year to date precipitation 21.77 26.31  
Snow  
Snow 0.00 in 0.00 in 0.00 in ()
Month to date snowfall 0.0 0.0  
Since 1 July snowfall 0.0 0.0  
Since 1 September snowfall 0.0 0.0  
Snow Depth 0.00 in    
Sea Level Pressure  
Sea Level Pressure 30.12 in    
Wind  
Wind Speed 4 mph (WSW)    
Max Wind Speed 12 mph    
Max Gust Speed 14 mph    
Visibility 10 miles    
Events Rain    
T = Trace of Precipitation, MM = Missing Value Source: NWS Daily Summary

Daily Weather History Graph

Daily Weather History Graph

Search for Another Location

Airport or City:

Trip Planner

Search our weather history database for the weather conditions in past years. The results will help you decide how hot, cold, wet, or windy it might be!

Date:

Astronomy

Oct. 07, 2012 Rise Set
Actual Time 7:37 AM EDT 7:03 PM EDT
Civil Twilight 7:09 AM EDT 7:31 PM EDT
Nautical Twilight 6:37 AM EDT 8:04 PM EDT
Astronomical Twilight 6:04 AM EDT 8:36 PM EDT
Moon No Moon Rise 2:18 PM EDT (10/7)
Length of Visible Light 12h 22m
Length of Day
11h 26m
Waning Gibbous, 56% of the Moon is Illuminated
Oct 7
Waning Gibbous
Oct 8
Last Quarter
Oct 15
New
Oct 21
First Quarter
Oct 29
Full

Hourly Weather History & Observations

Time (EDT) Temp. Windchill Dew Point Humidity Pressure Visibility Wind Dir Wind Speed Gust Speed Precip Events Conditions
12:53 AM 44.1 °F 41.5 °F 36.0 °F 73% 30.12 in 10.0 mi West 4.6 mph - N/A   Overcast
1:53 AM 44.1 °F 41.5 °F 36.0 °F 73% 30.12 in 10.0 mi WNW 4.6 mph - N/A   Overcast
2:53 AM 44.1 °F 42.5 °F 35.1 °F 71% 30.13 in 10.0 mi West 3.5 mph - N/A   Overcast
3:53 AM 43.0 °F 40.3 °F 34.0 °F 71% 30.12 in 10.0 mi WNW 4.6 mph - N/A   Overcast
4:53 AM 43.0 °F 41.3 °F 33.1 °F 68% 30.11 in 10.0 mi NW 3.5 mph - N/A   Overcast
5:53 AM 43.0 °F - 34.0 °F 71% 30.10 in 10.0 mi Calm Calm - N/A   Overcast
6:53 AM 42.1 °F 40.2 °F 34.0 °F 73% 30.12 in 10.0 mi WNW 3.5 mph - N/A   Overcast
7:53 AM 39.9 °F 37.8 °F 34.0 °F 79% 30.12 in 10.0 mi West 3.5 mph - N/A   Mostly Cloudy
8:53 AM 42.1 °F 40.2 °F 36.0 °F 79% 30.13 in 10.0 mi West 3.5 mph - N/A   Mostly Cloudy
9:53 AM 45.0 °F 42.6 °F 36.0 °F 71% 30.14 in 10.0 mi North 4.6 mph - N/A   Overcast
10:53 AM 46.9 °F - 35.1 °F 63% 30.14 in 10.0 mi Calm Calm - N/A   Mostly Cloudy
11:53 AM 48.0 °F - 33.1 °F 56% 30.14 in 10.0 mi Variable 5.8 mph - N/A   Overcast
12:53 PM 48.9 °F - 32.0 °F 52% 30.14 in 10.0 mi South 4.6 mph - N/A   Overcast
1:53 PM 46.9 °F - 35.1 °F 63% 30.13 in 8.0 mi WSW 3.5 mph - 0.00 in Rain Light Rain
2:48 PM 46.4 °F 45.2 °F 35.6 °F 66% 30.10 in 10.0 mi Variable 3.5 mph - 0.00 in   Overcast
2:53 PM 46.9 °F - 35.1 °F 63% 30.11 in 10.0 mi Calm Calm - 0.00 in   Overcast
3:28 PM 46.4 °F 43.5 °F 35.6 °F 66% 30.10 in 10.0 mi SW 5.8 mph - 0.00 in Rain Light Rain
3:53 PM 46.0 °F 42.5 °F 37.0 °F 71% 30.11 in 10.0 mi South 6.9 mph - 0.00 in Rain Light Rain
3:55 PM 46.4 °F 43.5 °F 37.4 °F 71% 30.10 in 10.0 mi South 5.8 mph - 0.00 in Rain Light Rain
4:40 PM 46.4 °F 42.9 °F 37.4 °F 71% 30.10 in 10.0 mi South 6.9 mph - 0.00 in   Overcast
4:53 PM 46.0 °F 43.1 °F 39.0 °F 76% 30.11 in 10.0 mi South 5.8 mph - 0.00 in   Mostly Cloudy
5:53 PM 46.9 °F - 39.0 °F 74% 30.11 in 10.0 mi West 4.6 mph - 0.00 in   Mostly Cloudy
6:53 PM 46.0 °F 43.1 °F 39.0 °F 76% 30.12 in 10.0 mi South 5.8 mph - N/A   Mostly Cloudy
7:53 PM 46.0 °F 41.9 °F 39.9 °F 79% 30.13 in 10.0 mi SW 8.1 mph - N/A   Overcast
8:53 PM 45.0 °F 41.2 °F 39.0 °F 80% 30.14 in 10.0 mi WSW 6.9 mph - 0.00 in   Overcast
9:53 PM 44.1 °F 40.8 °F 39.0 °F 82% 30.15 in 10.0 mi WSW 5.8 mph - N/A   Mostly Cloudy
10:53 PM 42.1 °F 39.2 °F 37.9 °F 85% 30.16 in 10.0 mi SW 4.6 mph - N/A   Scattered Clouds
11:53 PM 42.1 °F 38.4 °F 37.9 °F 85% 30.17 in 10.0 mi West 5.8 mph - N/A   Mostly Cloudy